Flag for India Weather past 2 weeks in Mumbai, Maharashtra, India

Now
90 °F

Haze.


Feels Like: 100 °F
Forecast: 82 / 88 °F
Wind: 15 mph from West

Location: Bombay / Santacruz

Current Time: Apr 26, 2015 at 2:35:51 PM

Latest Report: Apr 26, 2015 at 1:40 PM


Visibility: 2 mi

Pressure: 29.80 "Hg

Humidity: 63%

Dew point: 75 °F

Location of MumbaiLocation

Historic Weather in Mumbai — Graph

°F

Mumbai temperature yesterday

Maximum temperature yesterday: 90 °F (at 10:40 AM)
Minimum temperature yesterday: 82 °F (at 3:40 AM)
Average temperature yesterday: 86 °F

Past Weeks' High & Low Weather Summary

 TemperatureHumidityPressure
High93 °F (Apr 16, 11:40 AM)94% (Apr 24, 7:10 AM)29.95 "Hg (Apr 24, 7:10 AM)
Low77 °F (Apr 15, 2:10 AM)41% (Apr 17, 3:40 PM)29.68 "Hg (Apr 18, 4:40 PM)
Average86 °F72%29.82 "Hg
* Reported Apr 11 12:40 PM — Apr 26 1:10 PM, Mumbai, Weather by CustomWeather, © 2015

Note: Actual official high and low records may vary slightly from our data, if they occured in-between our weather recording intervals... More about our weather records

Advertising

Mumbai weather history for previous 24 hours

 ConditionsComfort  
Time TempWeatherWind HumidityBarometerVisibility
1:10 PM
Sun, Apr 26
91 °FHaze.13 mph56%29.83 "Hg2 mi
12:40 PM90 °FHaze.12 mph59%29.83 "Hg2 mi
12:10 PM90 °FHaze.14 mph59%29.86 "Hg2 mi
11:40 AM90 °FHaze.10 mph63%29.86 "Hg2 mi
11:10 AM90 °FScattered clouds.8 mph63%29.86 "Hg2 mi
10:40 AM90 °FScattered clouds.6 mph59%29.86 "Hg2 mi
10:10 AM88 °FScattered clouds.6 mph62%29.86 "Hg2 mi
9:40 AM88 °FScattered clouds.6 mph62%29.86 "Hg2 mi
9:10 AM86 °FScattered clouds.5 mph70%29.86 "Hg2 mi
8:10 AM84 °FHaze.5 mph74%29.86 "Hg1 mi
7:40 AM82 °FHaze.6 mph79%29.83 "Hg2 mi
7:10 AM81 °FHaze.6 mph79%29.83 "Hg2 mi
6:40 AM81 °FHaze.5 mph84%29.83 "Hg2 mi
6:10 AM81 °FHaze.5 mph84%29.80 "Hg2 mi
5:10 AM82 °FHaze.No wind79%29.80 "Hg2 mi
4:40 AM82 °FHaze.5 mph79%29.77 "Hg2 mi
4:10 AM82 °FHaze.No wind74%29.77 "Hg2 mi
3:40 AM82 °FHaze.No wind74%29.77 "Hg2 mi
3:10 AM82 °FHaze.No wind74%29.77 "Hg2 mi
2:40 AM84 °FHaze.3 mph70%29.77 "Hg2 mi
2:10 AM82 °FHaze.3 mph79%29.77 "Hg2 mi
1:40 AM82 °FHaze.3 mph74%29.77 "Hg2 mi
1:10 AM84 °FHaze.3 mph70%29.80 "Hg2 mi
12:40 AM84 °FHaze.3 mph74%29.80 "Hg2 mi
12:10 AM84 °FHaze.3 mph70%29.80 "Hg2 mi
11:40 PM
Sat, Apr 25
84 °FHaze.6 mph70%29.80 "Hg2 mi
11:10 PM84 °FHaze.5 mph74%29.80 "Hg2 mi
10:40 PM84 °FHaze.3 mph74%29.80 "Hg2 mi
10:10 PM84 °FHaze.5 mph74%29.80 "Hg2 mi
9:40 PM84 °FHaze.5 mph70%29.80 "Hg2 mi
9:10 PM86 °FHaze.7 mph66%29.77 "Hg2 mi
8:40 PM86 °FHaze.7 mph66%29.77 "Hg2 mi
8:10 PM86 °FHaze.8 mph66%29.77 "Hg3 mi
7:10 PM86 °FClear.10 mph66%29.74 "Hg4 mi
6:40 PM86 °FClear.10 mph70%29.74 "Hg4 mi
6:10 PM86 °FClear.9 mph70%29.74 "Hg4 mi
5:40 PM88 °FHaze.8 mph62%29.71 "Hg3 mi
5:10 PM88 °FHaze.15 mph62%29.71 "Hg3 mi
4:40 PM88 °FHaze.13 mph62%29.74 "Hg3 mi
4:10 PM90 °FPassing clouds.12 mph59%29.74 "Hg3 mi
3:40 PM90 °FPassing clouds.13 mph59%29.74 "Hg3 mi
3:10 PM90 °FPassing clouds.12 mph59%29.77 "Hg3 mi
2:10 PM88 °FPassing clouds.10 mph59%29.77 "Hg2 mi
Weather by CustomWeather, © 2015

See weather overviewHow to use our weather pages